Content
SEND FEEDBACK

Daily
Averages
Monthly
Summary
Croatia

PAZIN, CROATIA


Home > Europe > Croatia
Elevation: 312 feet     Latitude: 45 31N     Longitude: 013 34E

WEATHER
 
SELECT A DAY
Number of Records: 265,750;   Date Range: 1/10/97 - 7/29/14
 
SHARE

PRINT THIS DATA

[ ← Previous Day ]
WEATHER ALMANAC - OCTOBER 5, 2013
[ Next Day → ]
[ °C ]   °F
Weather ElementAverageHighLow
Temperature55.9 °F59 °F (12:00 pm)51.8 °F (12:30 am)
Dewpoint51 °F55.4 °F (7:00 pm)44.6 °F (1:00 am)
Humidity83.9 %94 % (3:00 pm)72 % (1:30 am)
Barometer30.18 in30.30 in (12:30 am)30.12 in (7:00 pm)
Wind Speed4.9 mph9.2 mph (12:30 am)
Weather ElementAverage
Visibility5.8 mi
Wind DirectionESE (118.3 °)

Weather ElementTotal
Precipitation---
Heating Degree Days9.6 (Base 65)
Growing Degree Days5.4 (Base 50)
Averaged from 47 records on October 5, 2013
WEATHER CONDITIONS BREAKOUT
WIND DIRECTION BREAKOUT
WEATHER BY HOUR - OCTOBER 5, 2013
[ °C ]   °F
Local TimeTemperatureDewpointHumidityBarometerVisibilityWind DirectionWind SpeedGust SpeedPrecipitationEventsConditions
12:30 AM51.8 °F46.4 °F82 %30.30 in6.2 miESE (120°)9.2 mphOvercast
1:00 AM51.8 °F44.6 °F76 %30.27 in6.2 miESE (120°)9.2 mphOvercast
1:30 AM53.6 °F44.6 °F72 %30.27 in6.2 miESE (120°)9.2 mphOvercast
2:00 AM53.6 °F46.4 °F77 %30.24 in6.2 miESE (120°)9.2 mphOvercast
2:30 AM53.6 °F46.4 °F77 %30.24 in6.2 miSE (130°)8.1 mphOvercast
3:00 AM53.6 °F46.4 °F77 %30.24 in6.2 miESE (120°)6.9 mphPartly Cloudy
3:30 AM53.6 °F46.4 °F77 %30.24 in6.2 miEast (100°)6.9 mphMostly Cloudy
4:00 AM53.6 °F46.4 °F77 %30.24 in6.2 miESE (120°)9.2 mphOvercast
4:30 AM53.6 °F46.4 °F77 %30.21 in6.2 miESE (120°)8.1 mphOvercast
5:00 AM53.6 °F46.4 °F77 %30.21 in6.2 miESE (120°)6.9 mphOvercast
5:30 AM53.6 °F46.4 °F77 %30.18 in6.2 miESE (120°)9.2 mphOvercast
6:00 AM55.4 °F48.2 °F77 %30.18 in6.2 miSE (130°)6.9 mphMostly Cloudy
6:30 AM55.4 °F48.2 °F77 %30.18 in6.2 miESE (120°)8.1 mphMostly Cloudy
7:00 AM55.4 °F48.2 °F77 %30.18 in6.2 miESE (110°)5.8 mphMostly Cloudy
7:30 AM55.4 °F48.2 °F77 %30.18 in6.2 miESE (120°)4.6 mphOvercast
8:00 AM55.4 °F50.0 °F82 %30.18 in6.2 miESE (110°)4.6 mphOvercast
8:30 AM55.4 °F50.0 °F82 %30.18 in6.2 miESE (120°)6.9 mphOvercast
9:00 AM57.2 °F50.0 °F77 %30.18 in6.2 miSE (130°)8.1 mphOvercast
9:30 AM57.2 °F50.0 °F77 %30.18 in6.2 miESE (120°)4.6 mphRainLight Rain
10:00 AM57.2 °F51.8 °F82 %30.18 in6.2 miSSE (150°)2.3 mphRainLight Rain
10:30 AM55.4 °F51.8 °F88 %30.18 in6.2 miESE (110°)4.6 mphOvercast
11:00 AM57.2 °F51.8 °F82 %30.21 in6.2 miESE (120°)6.9 mphRainLight Rain
11:30 AM57.2 °F51.8 °F82 %30.18 in6.2 miVariable1.2 mphRainLight Rain
12:00 PM59.0 °F50.0 °F72 %30.18 in6.2 miESE (120°)8.1 mphRainLight Rain
12:30 PM55.4 °F50.0 °F82 %30.18 in6.2 miSE (130°)8.1 mphRainLight Rain
1:00 PM55.4 °F50.0 °F82 %30.18 in6.2 miEast (90°)1.2 mphRainLight Rain
1:30 PM57.2 °F51.8 °F82 %30.18 in6.2 miVariable1.2 mphRainLight Rain
2:00 PM57.2 °F51.8 °F82 %30.18 in6.2 miENE (60°)3.5 mphLight Drizzle
2:30 PM55.4 °F51.8 °F88 %30.15 in3.7 miNE (50°)3.5 mphDrizzle
3:00 PM55.4 °F53.6 °F94 %30.15 in2.5 miNorth (360°)4.6 mphDrizzle
3:30 PM55.4 °F53.6 °F94 %30.15 in2.5 miNorth (360°)4.6 mphDrizzle
4:00 PM55.4 °F53.6 °F94 %30.15 in5.0 miNorth (350°)4.6 mphOvercast
4:30 PM57.2 °F53.6 °F88 %30.15 in6.2 miVariable1.2 mphOvercast
5:00 PM57.2 °F53.6 °F88 %30.15 in6.2 miNorth (10°)6.9 mphLight Drizzle
5:30 PM57.2 °F53.6 °F88 %30.15 in5.0 miNorth (360°)4.6 mphRainLight Rain
6:00 PM55.4 °F53.6 °F94 %30.15 in6.2 miNorth (10°)5.8 mphLight Drizzle
6:30 PM57.2 °F53.6 °F88 %30.15 in3.7 miNNE (20°)3.5 mphLight Drizzle
7:00 PM57.2 °F55.4 °F94 %30.12 in3.1 miVariable1.2 mphLight Drizzle
7:30 PM57.2 °F55.4 °F94 %30.12 in4.3 miCalmOvercast
8:00 PM57.2 °F55.4 °F94 %30.12 in6.2 miWNW (300°)1.2 mphOvercast
8:30 PM57.2 °F55.4 °F94 %30.12 in6.2 miNorth (350°)2.3 mphOvercast
9:00 PM57.2 °F55.4 °F94 %30.12 in6.2 miVariable1.2 mphOvercast
9:30 PM57.2 °F55.4 °F94 %30.12 in6.2 miVariable1.2 mphScattered Clouds
10:00 PM59.0 °F55.4 °F88 %30.12 in6.2 miVariable1.2 mphScattered Clouds
10:30 PM59.0 °F55.4 °F88 %30.12 in6.2 miVariable1.2 mphOvercast
11:00 PM59.0 °F55.4 °F88 %30.12 in6.2 miVariable1.2 mphMostly Cloudy
11:30 PM57.2 °F55.4 °F94 %30.12 in6.2 miNNW (340°)2.3 mphRainLight Rain
Hourly data recorded from LJPZ, located miles away from Pazin, Croatia







STORIES FROM OUR PARTNERS